This is the latest recevied weather packets stored in our database for station/object K7KAZ. If no packets are shown the sender has not sent any weather packets the latest 10 day(s).
| Time | Temp. | Humidity | Pressure | Rain* | Wind** | Luminosity | Snow |
|---|---|---|---|---|---|---|---|
| 1777903254 | 21.67° C | 41% | 1014.1 hPa | 0 mm | - | 35 W/m² | - |
| 1777902951 | 21.67° C | 42% | 1014.4 hPa | 0 mm | - | 31 W/m² | - |
| 1777902648 | 21.67° C | 42% | 1014.7 hPa | 0 mm | - | 31 W/m² | - |
| 1777902345 | 21.67° C | 42% | 1014.2 hPa | 0 mm | - | 27 W/m² | - |
| 1777902042 | 21.67° C | 42% | 1014.4 hPa | 0 mm | - | 29 W/m² | - |
| 1777901740 | 21.67° C | 43% | 1014.3 hPa | 0 mm | - | 23 W/m² | - |
| 1777901437 | 21.67° C | 43% | 1014.3 hPa | 0 mm | - | 16 W/m² | - |
| 1777901135 | 21.67° C | 42% | 1014.3 hPa | 0 mm | - | 13 W/m² | - |
| 1777900832 | 21.67° C | 42% | 1014.1 hPa | 0 mm | - | 13 W/m² | - |
| 1777900529 | 21.67° C | 42% | 1014.3 hPa | 0 mm | - | 11 W/m² | - |
| 1777900226 | 21.67° C | 42% | 1014.3 hPa | 0 mm | - | 10 W/m² | - |
| 1777899922 | 21.67° C | 43% | 1014.1 hPa | 0 mm | - | 6 W/m² | - |
| 1777899620 | 21.67° C | 43% | 1014 hPa | 0 mm | - | 4 W/m² | - |
| 1777899317 | 21.67° C | 43% | 1013.9 hPa | 0 mm | - | 2 W/m² | - |
| 1777899015 | 21.67° C | 43% | 1014.1 hPa | 0 mm | - | 1 W/m² | - |
| 1777898711 | 21.67° C | 43% | 1014 hPa | 0 mm | - | 0 W/m² | - |
| 1777898409 | 21.67° C | 43% | 1013.7 hPa | 0 mm | - | 0 W/m² | - |
| 1777898107 | 21.67° C | 42% | 1013.6 hPa | 0 mm | - | 0 W/m² | - |
| 1777897803 | 21.67° C | 42% | 1013.4 hPa | 0 mm | - | 0 W/m² | - |
| 1777897499 | 21.67° C | 42% | 1013.5 hPa | 0 mm | - | 0 W/m² | - |
| 1777897195 | 21.67° C | 43% | 1013.3 hPa | 0 mm | - | 0 W/m² | - |
| 1777896890 | 22.22° C | 42% | 1013.3 hPa | 0 mm | - | 0 W/m² | - |
| 1777896589 | 22.22° C | 41% | 1013.3 hPa | 0 mm | - | 0 W/m² | - |
| 1777896285 | 22.22° C | 41% | 1013.6 hPa | 0 mm | - | 0 W/m² | - |
| 1777895984 | 22.22° C | 42% | 1013.3 hPa | 0 mm | - | 0 W/m² | - |
* Rain latest hour (hover to see other rain measurements)
** Current wind speed in m/s (hover to see current wind gust speed)